Time,TemperatureF,DewpointF,PressureIn,WindDirection,WindDirectionDegrees,WindSpeedMPH,WindSpeedGustMPH,Humidity,HourlyPrecipIn,Conditions,Clouds,dailyrainin,SoftwareType,DateUTC
2013-02-16 00:06:00,34.1,33.0,29.95,NNW,329,0.0,0.0,95,0.00,,,0.00,weatherlink.com 1.10,2013-02-16 05:06:00,
2013-02-16 00:21:00,33.4,32.0,29.96,NNW,329,0.0,0.0,94,0.00,,,0.00,weatherlink.com 1.10,2013-02-16 05:21:00,
2013-02-16 00:36:00,32.5,31.0,29.95,NNW,329,0.0,0.0,95,0.00,,,0.00,weatherlink.com 1.10,2013-02-16 05:36:00,
2013-02-16 00:51:00,32.0,31.0,29.95,NNW,329,0.0,0.0,95,0.00,,,0.00,weatherlink.com 1.10,2013-02-16 05:51:00,
2013-02-16 01:06:00,31.7,31.0,29.95,NNW,329,0.0,0.0,95,0.00,,,0.00,weatherlink.com 1.10,2013-02-16 06:06:00,
2013-02-16 01:21:00,31.3,30.0,29.95,NNW,329,0.0,1.0,95,0.00,,,0.00,weatherlink.com 1.10,2013-02-16 06:21:00,
2013-02-16 01:36:00,30.9,30.0,29.95,NNW,329,0.0,0.0,96,0.00,,,0.00,weatherlink.com 1.10,2013-02-16 06:36:00,
2013-02-16 01:51:00,31.0,30.0,29.95,NNW,329,0.0,0.0,96,0.00,,,0.00,weatherlink.com 1.10,2013-02-16 06:51:00,
2013-02-16 02:06:00,31.4,31.0,29.95,NNW,329,0.0,1.0,97,0.00,,,0.00,weatherlink.com 1.10,2013-02-16 07:06:00,
2013-02-16 02:21:00,32.3,32.0,29.94,NW,310,0.0,2.0,97,0.00,,,0.00,weatherlink.com 1.10,2013-02-16 07:21:00,
2013-02-16 02:36:00,32.7,32.0,29.94,NW,310,0.0,0.0,97,0.00,,,0.00,weatherlink.com 1.10,2013-02-16 07:36:00,
2013-02-16 02:51:00,32.6,32.0,29.94,NW,310,0.0,0.0,97,0.00,,,0.00,weatherlink.com 1.10,2013-02-16 07:51:00,
2013-02-16 03:06:00,32.5,32.0,29.93,NW,310,0.0,0.0,97,0.00,,,0.00,weatherlink.com 1.10,2013-02-16 08:06:00,
2013-02-16 03:21:00,32.5,32.0,29.93,NW,310,0.0,0.0,97,0.00,,,0.00,weatherlink.com 1.10,2013-02-16 08:21:00,
2013-02-16 03:36:00,32.3,32.0,29.93,NW,310,0.0,0.0,97,0.00,,,0.00,weatherlink.com 1.10,2013-02-16 08:36:00,
2013-02-16 03:51:00,31.9,31.0,29.92,NW,310,0.0,0.0,96,0.00,,,0.00,weatherlink.com 1.10,2013-02-16 08:51:00,
2013-02-16 04:06:00,31.9,31.0,29.93,WNW,300,1.0,3.0,97,0.00,,,0.00,weatherlink.com 1.10,2013-02-16 09:06:00,
2013-02-16 04:21:00,32.3,31.0,29.93,NW,316,1.0,3.0,96,0.00,,,0.00,weatherlink.com 1.10,2013-02-16 09:21:00,
2013-02-16 04:36:00,33.3,30.0,29.93,NW,309,1.0,3.0,89,0.00,,,0.00,weatherlink.com 1.10,2013-02-16 09:36:00,
2013-02-16 04:51:00,33.8,30.0,29.93,NNW,342,0.0,4.0,86,0.00,,,0.00,weatherlink.com 1.10,2013-02-16 09:51:00,
2013-02-16 05:06:00,33.5,30.0,29.93,NNW,332,2.0,4.0,85,0.00,,,0.00,weatherlink.com 1.10,2013-02-16 10:06:00,
2013-02-16 05:21:00,33.4,29.0,29.93,North,353,1.0,5.0,84,0.00,,,0.00,weatherlink.com 1.10,2013-02-16 10:21:00,
2013-02-16 05:36:00,33.5,29.0,29.93,NW,316,3.0,5.0,84,0.00,,,0.00,weatherlink.com 1.10,2013-02-16 10:36:00,
2013-02-16 05:52:00,33.7,29.0,29.93,NNW,328,1.0,5.0,83,0.00,,,0.00,weatherlink.com 1.10,2013-02-16 10:52:00,
2013-02-16 06:07:00,33.5,29.0,29.93,NNW,336,2.0,4.0,84,0.00,,,0.00,weatherlink.com 1.10,2013-02-16 11:07:00,
2013-02-16 06:22:00,33.2,29.0,29.93,NW,319,0.0,5.0,84,0.00,,,0.00,weatherlink.com 1.10,2013-02-16 11:22:00,
2013-02-16 06:37:00,33.2,29.0,29.93,NW,314,0.0,3.0,83,0.00,,,0.00,weatherlink.com 1.10,2013-02-16 11:37:00,
2013-02-16 06:52:00,33.0,29.0,29.93,NNW,338,0.0,2.0,84,0.00,,,0.00,weatherlink.com 1.10,2013-02-16 11:52:00,
2013-02-16 07:07:00,32.8,29.0,29.94,NNW,340,1.0,4.0,84,0.00,,,0.00,weatherlink.com 1.10,2013-02-16 12:07:00,
2013-02-16 07:22:00,33.1,29.0,29.94,North,360,0.0,3.0,84,0.00,,,0.00,weatherlink.com 1.10,2013-02-16 12:22:00,
2013-02-16 07:37:00,32.9,29.0,29.94,North,1,0.0,1.0,86,0.00,,,0.00,weatherlink.com 1.10,2013-02-16 12:37:00,
2013-02-16 07:52:00,32.8,29.0,29.94,North,356,0.0,2.0,86,0.00,,,0.00,weatherlink.com 1.10,2013-02-16 12:52:00,
2013-02-16 08:07:00,33.4,29.0,29.93,NNW,328,2.0,5.0,83,0.00,,,0.00,weatherlink.com 1.10,2013-02-16 13:07:00,
2013-02-16 08:22:00,34.0,29.0,29.94,NNW,327,1.0,6.0,81,0.00,,,0.00,weatherlink.com 1.10,2013-02-16 13:22:00,
2013-02-16 08:37:00,34.3,28.0,29.94,NW,306,2.0,6.0,79,0.00,,,0.00,weatherlink.com 1.10,2013-02-16 13:37:00,
2013-02-16 08:52:00,34.4,29.0,29.94,NNW,334,2.0,5.0,79,0.00,,,0.00,weatherlink.com 1.10,2013-02-16 13:52:00,
2013-02-16 09:07:00,34.6,28.0,29.93,North,360,1.0,6.0,77,0.00,,,0.00,weatherlink.com 1.10,2013-02-16 14:07:00,
2013-02-16 09:22:00,34.7,28.0,29.93,North,351,2.0,5.0,77,0.00,,,0.00,weatherlink.com 1.10,2013-02-16 14:22:00,
2013-02-16 09:37:00,34.9,28.0,29.93,NW,323,0.0,6.0,76,0.00,,,0.00,weatherlink.com 1.10,2013-02-16 14:37:00,
2013-02-16 09:52:00,35.0,27.0,29.93,NW,325,4.0,9.0,73,0.00,,,0.00,weatherlink.com 1.10,2013-02-16 14:52:00,
2013-02-16 10:07:00,35.1,27.0,29.93,NW,323,2.0,8.0,72,0.00,,,0.00,weatherlink.com 1.10,2013-02-16 15:07:00,
2013-02-16 10:22:00,35.1,27.0,29.93,NNE,12,6.0,7.0,72,0.00,,,0.00,weatherlink.com 1.10,2013-02-16 15:22:00,
2013-02-16 10:37:00,35.2,26.0,29.93,NNE,29,1.0,7.0,70,0.00,,,0.00,weatherlink.com 1.10,2013-02-16 15:37:00,
2013-02-16 11:07:00,36.1,26.0,29.92,NNW,333,1.0,7.0,67,0.00,,,0.00,weatherlink.com 1.10,2013-02-16 16:07:00,
2013-02-16 11:22:00,36.4,27.0,29.91,NNW,327,2.0,6.0,68,0.00,,,0.00,weatherlink.com 1.10,2013-02-16 16:22:00,
2013-02-16 11:37:00,36.5,24.0,29.91,NW,309,1.0,6.0,62,0.00,,,0.00,weatherlink.com 1.10,2013-02-16 16:37:00,
2013-02-16 11:52:00,36.6,25.0,29.90,NNW,339,2.0,9.0,63,0.00,,,0.00,weatherlink.com 1.10,2013-02-16 16:52:00,
2013-02-16 12:07:00,36.6,25.0,29.89,NW,315,5.0,7.0,62,0.00,,,0.00,weatherlink.com 1.10,2013-02-16 17:07:00,
2013-02-16 12:22:00,36.8,25.0,29.88,NW,321,4.0,8.0,62,0.00,,,0.00,weatherlink.com 1.10,2013-02-16 17:22:00,
2013-02-16 12:37:00,37.0,24.0,29.87,NW,311,4.0,7.0,60,0.00,,,0.00,weatherlink.com 1.10,2013-02-16 17:37:00,
2013-02-16 12:52:00,36.7,23.0,29.87,NNW,331,3.0,7.0,59,0.00,,,0.00,weatherlink.com 1.10,2013-02-16 17:52:00,
2013-02-16 13:07:00,36.4,24.0,29.87,NW,324,3.0,7.0,61,0.00,,,0.00,weatherlink.com 1.10,2013-02-16 18:07:00,
2013-02-16 13:22:00,36.1,23.0,29.87,North,359,0.0,8.0,60,0.00,,,0.00,weatherlink.com 1.10,2013-02-16 18:22:00,
2013-02-16 13:37:00,36.1,23.0,29.86,NNW,329,4.0,6.0,60,0.00,,,0.00,weatherlink.com 1.10,2013-02-16 18:37:00,
2013-02-16 13:52:00,35.8,23.0,29.85,NNE,24,5.0,9.0,60,0.00,,,0.00,weatherlink.com 1.10,2013-02-16 18:52:00,
2013-02-16 14:07:00,35.7,22.0,29.85,NNW,334,5.0,8.0,59,0.00,,,0.00,weatherlink.com 1.10,2013-02-16 19:07:00,
2013-02-16 14:22:00,35.7,22.0,29.86,NNE,27,3.0,8.0,58,0.00,,,0.00,weatherlink.com 1.10,2013-02-16 19:22:00,
2013-02-16 14:38:00,35.8,21.0,29.85,NW,316,3.0,8.0,56,0.00,,,0.00,weatherlink.com 1.10,2013-02-16 19:38:00,
2013-02-16 14:53:00,36.1,21.0,29.85,WNW,298,5.0,9.0,55,0.00,,,0.00,weatherlink.com 1.10,2013-02-16 19:53:00,
2013-02-16 15:08:00,35.9,21.0,29.84,NW,319,3.0,10.0,54,0.00,,,0.00,weatherlink.com 1.10,2013-02-16 20:08:00,
2013-02-16 15:23:00,36.0,19.0,29.84,NW,315,4.0,9.0,51,0.00,,,0.00,weatherlink.com 1.10,2013-02-16 20:23:00,
2013-02-16 15:38:00,35.7,19.0,29.84,NW,310,2.0,9.0,50,0.00,,,0.00,weatherlink.com 1.10,2013-02-16 20:38:00,
2013-02-16 15:53:00,35.6,19.0,29.84,NW,320,3.0,6.0,51,0.00,,,0.00,weatherlink.com 1.10,2013-02-16 20:53:00,
2013-02-16 16:08:00,35.5,18.0,29.85,NW,304,4.0,9.0,50,0.00,,,0.00,weatherlink.com 1.10,2013-02-16 21:08:00,
2013-02-16 16:23:00,35.4,19.0,29.85,West,279,1.0,9.0,51,0.00,,,0.00,weatherlink.com 1.10,2013-02-16 21:23:00,
2013-02-16 16:38:00,35.1,18.0,29.84,NW,318,4.0,11.0,50,0.00,,,0.00,weatherlink.com 1.10,2013-02-16 21:38:00,
2013-02-16 16:53:00,34.9,17.0,29.85,NNW,330,2.0,10.0,49,0.00,,,0.00,weatherlink.com 1.10,2013-02-16 21:53:00,
2013-02-16 17:08:00,34.7,17.0,29.85,NW,321,2.0,10.0,48,0.00,,,0.00,weatherlink.com 1.10,2013-02-16 22:08:00,
2013-02-16 17:23:00,34.4,17.0,29.85,NNW,331,3.0,6.0,49,0.00,,,0.00,weatherlink.com 1.10,2013-02-16 22:23:00,
2013-02-16 17:38:00,34.3,17.0,29.85,NW,314,4.0,7.0,50,0.00,,,0.00,weatherlink.com 1.10,2013-02-16 22:38:00,
2013-02-16 17:53:00,34.2,16.0,29.86,WNW,294,2.0,7.0,48,0.00,,,0.00,weatherlink.com 1.10,2013-02-16 22:53:00,
2013-02-16 18:08:00,34.0,17.0,29.86,NW,323,1.0,6.0,49,0.00,,,0.00,weatherlink.com 1.10,2013-02-16 23:08:00,
2013-02-16 18:23:00,33.8,16.0,29.86,NW,318,1.0,7.0,49,0.00,,,0.00,weatherlink.com 1.10,2013-02-16 23:23:00,
2013-02-16 18:38:00,33.6,17.0,29.86,NW,320,1.0,7.0,50,0.00,,,0.00,weatherlink.com 1.10,2013-02-16 23:38:00,
2013-02-16 18:53:00,33.5,16.0,29.87,WNW,300,6.0,11.0,49,0.00,,,0.00,weatherlink.com 1.10,2013-02-16 23:53:00,
2013-02-16 19:08:00,33.2,16.0,29.87,NW,314,7.0,13.0,49,0.00,,,0.00,weatherlink.com 1.10,2013-02-17 00:08:00,
2013-02-16 19:23:00,32.8,16.0,29.87,WNW,289,4.0,14.0,51,0.00,,,0.00,weatherlink.com 1.10,2013-02-17 00:23:00,
2013-02-16 19:38:00,32.4,16.0,29.87,WNW,302,6.0,10.0,51,0.00,,,0.00,weatherlink.com 1.10,2013-02-17 00:38:00,
2013-02-16 19:53:00,32.1,16.0,29.87,NW,323,3.0,8.0,52,0.00,,,0.00,weatherlink.com 1.10,2013-02-17 00:53:00,
2013-02-16 20:08:00,31.8,16.0,29.87,NW,305,4.0,8.0,52,0.00,,,0.00,weatherlink.com 1.10,2013-02-17 01:08:00,
2013-02-16 20:23:00,31.6,16.0,29.86,NNW,331,5.0,7.0,52,0.00,,,0.00,weatherlink.com 1.10,2013-02-17 01:23:00,
2013-02-16 20:38:00,31.4,15.0,29.86,NW,323,4.0,9.0,51,0.00,,,0.00,weatherlink.com 1.10,2013-02-17 01:38:00,
2013-02-16 20:53:00,31.2,15.0,29.86,West,280,2.0,9.0,51,0.00,,,0.00,weatherlink.com 1.10,2013-02-17 01:53:00,
2013-02-16 21:08:00,30.8,14.0,29.86,NW,309,5.0,10.0,50,0.00,,,0.00,weatherlink.com 1.10,2013-02-17 02:08:00,
2013-02-16 21:23:00,30.7,13.0,29.86,NNW,337,7.0,11.0,49,0.00,,,0.00,weatherlink.com 1.10,2013-02-17 02:23:00,
2013-02-16 21:38:00,30.6,13.0,29.87,NW,313,6.0,13.0,49,0.00,,,0.00,weatherlink.com 1.10,2013-02-17 02:38:00,
2013-02-16 21:53:00,30.4,13.0,29.87,NNW,333,3.0,12.0,49,0.00,,,0.00,weatherlink.com 1.10,2013-02-17 02:53:00,
2013-02-16 22:08:00,30.1,13.0,29.86,WNW,293,2.0,7.0,50,0.00,,,0.00,weatherlink.com 1.10,2013-02-17 03:08:00,
2013-02-16 22:23:00,29.8,13.0,29.86,NW,311,4.0,9.0,50,0.00,,,0.00,weatherlink.com 1.10,2013-02-17 03:23:00,
2013-02-16 22:38:00,29.5,13.0,29.85,NNW,337,5.0,9.0,50,0.00,,,0.00,weatherlink.com 1.10,2013-02-17 03:38:00,
2013-02-16 22:53:00,29.3,13.0,29.85,NW,314,3.0,11.0,50,0.00,,,0.00,weatherlink.com 1.10,2013-02-17 03:53:00,
2013-02-16 23:08:00,29.0,13.0,29.85,NNW,337,6.0,10.0,51,0.00,,,0.00,weatherlink.com 1.10,2013-02-17 04:08:00,
2013-02-16 23:23:00,28.7,14.0,29.84,NW,319,9.0,10.0,54,0.00,,,0.00,weatherlink.com 1.10,2013-02-17 04:23:00,
2013-02-16 23:38:00,28.4,14.0,29.84,NW,315,9.0,12.0,55,0.00,,,0.00,weatherlink.com 1.10,2013-02-17 04:38:00,
2013-02-16 23:54:00,28.2,15.0,29.84,NW,310,4.0,8.0,57,0.00,,,0.00,weatherlink.com 1.10,2013-02-17 04:54:00,